Location: Newark
(41.8083°N, 72.2500°W)
Time: 21:15:01
(UTC+00:00)

Courier 1B - Pass Details

Date: 04 December 2021
Orbit: 962 x 1209 km, 28.3° (Epoch: 19 January)

Event Time Altitude Azimuth Distance (km) Brightness Sun altitude
Rises 01:28:56 0° 256° (WSW) 3,867 11.3 -45.9°
Reaches altitude 10° 01:32:37 10° 239° (WSW) 2,861 10.3 -46.6°
Enters shadow 01:33:15 12° 235° (SW) 2,721 10.1 -46.7°
Maximum altitude 01:37:09 18° 198° (SSW) 2,240 - -47.4°
Drops below altitude 10° 01:41:32 10° 156° (SSE) 2,751 - -48.2°
Sets 01:45:00 0° 139° (SE) 3,667 - -48.8°
